Location: Newark
(47.4417°N, 1.1394°W)
Time: 10:08:01
(UTC+00:00)

Envisat - Pass Details

Date: 25 November 2019
Orbit: 764 x 766 km, 98.1° (Epoch: 13 December)

Event Time Altitude Azimuth Distance (km) Brightness Sun altitude
Rises 18:32:57 0° 184° (S) 3,219 6.4 -22.0°
Reaches altitude 10° 18:35:21 10° 191° (SSW) 2,298 5.7 -22.4°
Maximum altitude 18:40:09 42° 262° (W) 1,086 4.2 -23.2°
Drops below altitude 10° 18:44:59 10° 334° (NNW) 2,313 5.7 -24.1°
Sets 18:47:25 0° 341° (NNW) 3,244 6.4 -24.5°
